Location: Newark
(34.5992°S, 58.3747°W)
Time: 01:10:29
(UTC+00:00)

STARLINK 1035 - Pass Details

Date: 08 December 2019
Orbit: 397 x 400 km, 53.0° (Epoch: 17 January)

Event Time Altitude Azimuth Distance (km) Brightness Sun altitude
Rises 00:05:50 0° 246° (WSW) 2,330 8.5 -12.7°
Reaches altitude 10° 00:08:39 10° 272° (W) 1,465 6.5 -13.1°
Maximum altitude 00:10:26 14° 305° (NW) 1,244 5.6 -13.4°
Drops below altitude 10° 00:12:14 10° 339° (NNW) 1,458 5.6 -13.7°
Enters shadow 00:12:53 - 347° (NNW) 1,619 5.7 -13.8°
